Regional Weather Roundup
Issued by NWS

Home | Current Version | Previous Version | Text Only | Print | Product List | Glossary Off
Versions: 1 2 3 4 5 6 7 8 9 10 11 12 13 14 15 16 17 18 19 20 21 22 23 24 25 26 27 28 29 30 31 32 33 34 35 36 37 38 39 40 41 42 43 44 45 46 47 48 49 50

000
ASUS44 KMEG 290500
RWRTN
TENNESSEE HOURLY STATE WEATHER ROUNDUP
NATIONAL WEATHER SERVICE MEMPHIS TN
1200 AM CDT SUN MAR 29 2015

TNZ002-004-019-021-049-052-054-088>092-290600-
WEST TENNESSEE

CITY           SKY/WX    TMP DP  RH WIND       PRES   REMARKS
MEMPHIS INTL   PTCLDY    40  27  59 CALM      30.32S
NWS MEMPHIS      N/A     34 N/A N/A MISG        N/A
JACKSON        CLEAR     28  24  85 CALM      30.33S
DYERSBURG      CLEAR     32  18  55 CALM      30.35R
UNION CITY     CLEAR     36  18  48 E5        30.31S WCI  32
PARIS          CLEAR     27  18  69 E3        30.32F
LEXINGTON      CLEAR     27  19  74 CALM      30.32R
SAVANNAH       CLEAR     27  25  93 CALM      30.33S
$$

TNZ008-025-027-028-033-062-065-066-290600-
NORTH MIDDLE TENNESSEE

CITY           SKY/WX    TMP DP  RH WIND       PRES   REMARKS
NASHVILLE      CLEAR     32  18  56 CALM      30.34S
CLARKSVILLE    CLEAR     31  16  54 CALM      30.34S
COOKEVILLE     CLEAR     23  19  86 CALM      30.31S
CROSSVILLE     CLEAR     30  13  49 N3        30.29S
$$

TNZ061-075-076-078-094-096-097-290600-
SOUTH MIDDLE TENNESSEE

CITY           SKY/WX    TMP DP  RH WIND       PRES   REMARKS
FAYETTEVILLE   CLEAR     30  12  47 NE6       30.31S WCI  24
TULLAHOMA      CLEAR     27  18  69 CALM      30.32S
WINCHESTER     CLEAR     27  21  80 CALM      30.32S
COLUMBIA       CLEAR     28  28 100 CALM      30.31S
SHELBYVILLE    CLEAR     27  23  86 CALM      30.34S
$$

TNZ017-018-042-046-047-290600-
NORTHEAST TENNESSEE

CITY           SKY/WX    TMP DP  RH WIND       PRES   REMARKS
TRI CITIES     CLEAR     28  12  51 N5        30.29R WCI  23
ELIZABETHTON   CLEAR     25  12  58 CALM      30.28R
$$

TNZ012-013-036-069-073-074-290600-
CENTRAL EAST TENNESSEE

CITY           SKY/WX    TMP DP  RH WIND       PRES   REMARKS
KNOXVILLE      CLEAR     33  17  51 CALM      30.32R
OAK RIDGE      CLEAR     34  15  46 CALM      30.34R
GATLINBURG     CLEAR     27  18  69 CALM      30.32R
$$

TNZ083-085-099-290600-
SOUTHEAST TENNESSEE

CITY           SKY/WX    TMP DP  RH WIND       PRES   REMARKS
CHATTANOOGA    CLEAR     38  14  37 N7        30.32R WCI  33
$$

SKY/WX REPORTED AS FAIR MEANS FEW OR NO CLOUDS BELOW
12 THOUSAND FEET.



USA.gov is the U.S. government's official web portal to all federal, state and local government web resources and services.